This demonstration page uses our WeatherBlox Daily Observations layout. Learn more.

Left ArrowRight Arrow

39.51506, -84.39828

Hourly Observations for February 28, 2015

Temp ( °F °C ) Dew Point ( °F °C ) Humidity (%) Winds ( mph kmh ) Pressure ( in mb ) Visibility ( mi km ) Precip ( " mm )
12:15 am 00:15 Clear 10 -12.3 2 -16.9 69 69 Calm 30.80 1043 10 16 0.00 0.00
12:35 am 00:35 Clear 9 -12.6 1 -17.1 69 69 Calm 30.80 1043 10 16 0.00 0.00
12:55 am 00:55 Clear 9 -12.6 2 -16.8 71 71 Calm 30.80 1043 10 16 0.00 0.00
1:15 am 01:15 Clear 9 -12.6 2 -16.7 72 72 Calm 30.80 1043 10 16 0.00 0.00
1:35 am 01:35 Clear N/A N/A N/A undefined N/A N/A N/A 0.00 0.00
1:55 am 01:55 undefined N/A N/A N/A undefined N/A N/A N/A 0.00 0.00
2:15 am 02:15 undefined N/A N/A N/A undefined N/A N/A N/A 0.00 0.00
2:35 am 02:35 undefined N/A N/A N/A undefined N/A N/A N/A 0.00 0.00
2:55 am 02:55 undefined N/A N/A N/A undefined N/A N/A N/A 0.00 0.00
3:15 am 03:15 undefined N/A N/A N/A undefined N/A N/A N/A 0.00 0.00
3:35 am 03:35 undefined N/A N/A N/A undefined N/A N/A N/A 0.00 0.00
3:55 am 03:55 undefined N/A N/A N/A undefined N/A N/A N/A 0.00 0.00
4:15 am 04:15 undefined N/A N/A N/A undefined N/A N/A N/A 0.00 0.00
4:35 am 04:35 undefined N/A N/A N/A undefined N/A N/A N/A 0.00 0.00
4:55 am 04:55 undefined N/A N/A N/A undefined N/A N/A N/A 0.00 0.00
5:15 am 05:15 undefined N/A N/A N/A undefined N/A N/A N/A 0.00 0.00
5:35 am 05:35 undefined N/A N/A N/A undefined N/A N/A N/A 0.00 0.00
5:55 am 05:55 undefined N/A N/A N/A undefined N/A N/A N/A 0.00 0.00
6:15 am 06:15 undefined N/A N/A N/A undefined N/A N/A N/A 0.00 0.00
6:35 am 06:35 undefined N/A N/A N/A undefined N/A N/A N/A 0.00 0.00
6:55 am 06:55 undefined N/A N/A N/A undefined N/A N/A N/A 0.00 0.00
7:15 am 07:15 undefined N/A N/A N/A undefined N/A N/A N/A 0.00 0.00
7:35 am 07:35 undefined N/A N/A N/A undefined N/A N/A N/A 0.00 0.00
7:55 am 07:55 undefined N/A N/A N/A undefined N/A N/A N/A 0.00 0.00
8:15 am 08:15 undefined N/A N/A N/A undefined N/A N/A N/A 0.00 0.00
8:35 am 08:35 undefined N/A N/A N/A undefined N/A N/A N/A 0.00 0.00
8:55 am 08:55 undefined N/A N/A N/A undefined N/A N/A N/A 0.00 0.00
9:15 am 09:15 undefined N/A N/A N/A undefined N/A N/A N/A 0.00 0.00
9:35 am 09:35 undefined 17 -8.5 -3 -19.4 41 41 E 7 11 30.83 1044 10 16 0.00 0.00
9:55 am 09:55 undefined N/A N/A N/A undefined N/A N/A N/A 0.00 0.00
10:15 am 10:15 Partly Cloudy 19 -7 -3 -19.5 37 37 ESE 8 13 30.83 1044 10 16 0.00 0.00
10:35 am 10:35 Mostly Cloudy 21 -6.3 -2 -19.1 36 36 ESE 6 9 30.83 1044 10 16 0.00 0.00
10:55 am 10:55 Cloudy 21 -6 -2 -18.9 36 36 E 5 7 30.80 1043 10 16 0.00 0.00
11:15 am 11:15 Cloudy 22 -5.6 -1 -18.6 35 35 ESE 6 9 30.80 1043 10 16 0.00 0.00
11:35 am 11:35 Cloudy 22 -5.3 -1 -18.4 35 35 E 6 9 30.80 1043 10 16 0.00 0.00
11:55 am 11:55 Cloudy 23 -5 -1 -18.3 35 35 E 3 6 30.80 1043 10 16 0.00 0.00
12:15 pm 12:15 Cloudy 24 -4.2 -1 -18.4 32 32 E 7 11 30.80 1043 10 16 0.00 0.00
12:35 pm 12:35 Cloudy 26 -3.4 0 -17.6 33 33 ESE 8 13 30.77 1042 10 16 0.00 0.00
12:55 pm 12:55 Mostly Cloudy 27 -2.8 -1 -18.2 30 30 ESE 3 6 30.77 1042 10 16 0.00 0.00
1:15 pm 13:15 Cloudy 29 -1.9 1 -17.1 31 31 E 6 9 30.74 1041 10 16 0.00 0.00
1:35 pm 13:35 Mostly Cloudy 29 -1.5 1 -17 30 30 E 5 7 30.71 1040 10 16 0.00 0.00
2:15 pm 14:15 Partly Cloudy 29 -1.5 -1 -18.2 27 27 ESE 6 9 30.71 1040 10 16 0.00 0.00
2:35 pm 14:35 Mostly Cloudy 29 -1.5 1 -17.4 29 29 E 6 9 30.68 1039 10 16 0.00 0.00
2:55 pm 14:55 Cloudy 29 -1.5 1 -17.1 30 30 ENE 6 9 30.68 1039 10 16 0.00 0.00
3:15 pm 15:15 Cloudy 29 -1.5 3 -16.3 32 32 ESE 6 9 30.65 1038 10 16 0.00 0.00
3:35 pm 15:35 Cloudy 29 -1.5 3 -16.2 32 32 ESE 6 9 30.65 1038 10 16 0.00 0.00
3:55 pm 15:55 Cloudy 29 -1.5 3 -16.1 32 32 E 8 13 30.65 1038 10 16 0.00 0.00
4:15 pm 16:15 Partly Cloudy 29 -1.5 3 -16.2 32 32 E 7 11 30.65 1038 10 16 0.00 0.00
4:35 pm 16:35 Sunny 29 -1.5 5 -14.9 36 36 E 7 11 30.65 1038 10 16 0.00 0.00
4:55 pm 16:55 Partly Cloudy 29 -1.5 6 -14.7 36 36 E 9 15 30.65 1038 10 16 0.00 0.00
5:15 pm 17:15 Mostly Cloudy 29 -1.5 6 -14.5 37 37 E 7 11 30.65 1038 10 16 0.00 0.00
5:35 pm 17:35 Cloudy 29 -1.5 9 -12.6 43 43 E 7 11 30.62 1037 10 16 0.00 0.00
5:55 pm 17:55 Cloudy 29 -1.5 8 -13.2 41 41 E 8 13 30.62 1037 10 16 0.00 0.00
6:15 pm 18:15 Cloudy 27 -2.8 8 -13.2 45 45 E 8 13 30.65 1038 10 16 0.00 0.00
6:35 pm 18:35 Cloudy 27 -2.8 8 -13.6 44 44 E 8 13 30.65 1038 10 16 0.00 0.00
7:15 pm 19:15 Cloudy 27 -2.8 9 -12.9 46 46 E 7 11 30.65 1038 10 16 0.00 0.00
7:35 pm 19:35 Cloudy 27 -2.8 11 -11.9 50 50 ENE 8 13 30.62 1037 10 16 0.00 0.00
7:55 pm 19:55 Cloudy 26 -3.5 10 -12.1 52 52 ENE 7 11 30.62 1037 10 16 0.00 0.00
8:15 pm 20:15 Cloudy 25 -4 9 -12.7 51 51 ENE 6 9 30.62 1037 10 16 0.00 0.00
8:35 pm 20:35 Cloudy 25 -4.1 9 -12.9 51 51 ENE 6 9 30.62 1037 10 16 0.00 0.00
8:55 pm 20:55 Cloudy 25 -4.1 9 -12.8 51 51 NE 5 7 30.62 1037 10 16 0.00 0.00
9:15 pm 21:15 Cloudy 26 -3.5 10 -12.4 51 51 NE 5 7 30.62 1037 10 16 0.00 0.00
9:35 pm 21:35 Cloudy 27 -2.9 10 -12.1 50 50 NNE 6 9 30.62 1037 10 16 0.00 0.00
9:55 pm 21:55 Cloudy 27 -2.8 10 -12.2 49 49 NNE 5 7 30.62 1037 10 16 0.00 0.00
10:15 pm 22:15 Cloudy 27 -2.8 10 -12.1 49 49 NNE 5 7 30.62 1037 10 16 0.00 0.00
10:35 pm 22:35 Cloudy 27 -2.8 10 -12 50 50 NNE 5 7 30.62 1037 10 16 0.00 0.00
10:55 pm 22:55 Cloudy 27 -2.8 11 -11.8 50 50 NE 3 6 30.62 1037 10 16 0.00 0.00
11:15 pm 23:15 Cloudy with Light Snow 27 -2.8 11 -11.9 50 50 NE 6 9 30.59 1036 10 16 0.00 0.00
11:35 pm 23:35 Cloudy with Light Snow 27 -2.9 13 -10.5 56 56 ENE 5 7 30.59 1036 3 5 0.00 0.00
11:55 pm 23:55 Cloudy with Light Snow 24 -4.3 17 -8.5 73 73 ENE 3 6 30.59 1036 2 2 0.00 0.00

Powered by AerisWeather